Great Falls, MT

9:26 PM MDT on March 27, 2017 (GMT -0600)
Great Falls International

Weather History for KGTF - February, 2014

Change the Weather History Date:

Sunday, February 2, 2014

  Actual Average Record
Temperature  
Mean Temperature 10 °F 26 °F  
Max Temperature 18 °F 37 °F 64 °F (1934)
Min Temperature 2 °F 16 °F -35 °F (1996)
Degree Days  
Heating Degree Days 55 39  
Month to date heating degree days 114 78  
Since 1 July heating degree days 4365 4529  
Cooling Degree Days 0 0  
Month to date cooling degree days 0 0  
Year to date cooling degree days 0 0  
Moisture  
Dew Point 7 °F    
Average Humidity 80    
Maximum Humidity 92    
Minimum Humidity 67    
Precipitation  
Precipitation 0.01 in 0.01 in 0.34 in (1923)
Month to date precipitation 0.02 0.03  
Year to date precipitation 1.31 0.54  
Snow  
Snow 0.40 in 0.30 in 5.40 in (1982)
Month to date snowfall 0.7 0.6  
Since 1 July snowfall 42.7 32.4  
Snow Depth 5.00 in    
Sea Level Pressure  
Sea Level Pressure 30.12 in    
Wind  
Wind Speed 6 mph (NE)    
Max Wind Speed 16 mph    
Max Gust Speed 22 mph    
Visibility 9 miles    
Events Snow    
T = Trace of Precipitation, MM = Missing Value Source: NWS Daily Summary

Daily Weather History Graph

Daily Weather History Graph

Search for Another Location

Airport or City:

Trip Planner

Search our weather history database for the weather conditions in past years. The results will help you decide how hot, cold, wet, or windy it might be!

Date:

Astronomy

Feb. 02, 2014 Rise Set
Actual Time 7:50 AM MST 5:28 PM MST
Civil Twilight 7:17 AM MST 6:01 PM MST
Nautical Twilight 6:40 AM MST 6:38 PM MST
Astronomical Twilight 6:04 AM MST 7:14 PM MST
Moon 9:01 AM MST (2/2) 9:36 PM MST (2/2)
Length of Visible Light 10h 44m
Length of Day
9h 38m
Waxing Crescent, 12% of the Moon is Illuminated
Feb 2
Waxing Crescent
Feb 6
First Quarter
Feb 14
Full
Feb 22
Last Quarter
Mar 1
New

Hourly Weather History & Observations

Time (MST) Temp. Windchill Dew Point Humidity Pressure Visibility Wind Dir Wind Speed Gust Speed Precip Events Conditions
12:53 AM 10.0 °F -2.9 °F 3.0 °F 73% 30.16 in 10.0 mi SW 9.2 mph - N/A   Clear
1:53 AM 10.0 °F -3.7 °F 3.0 °F 73% 30.17 in 10.0 mi SW 10.4 mph - N/A   Clear
2:53 AM 12.0 °F -2.0 °F 3.9 °F 70% 30.18 in 10.0 mi WSW 11.5 mph - N/A   Clear
3:53 AM 6.1 °F -10.2 °F 1.0 °F 80% 30.21 in 10.0 mi NNW 12.7 mph - N/A   Clear
4:00 AM 6.8 °F -6.9 °F 1.4 °F 79% 29.98 in 10.0 mi NNW 9.2 mph - N/A   Clear
4:53 AM 9.0 °F - 1.9 °F 73% 30.21 in 10.0 mi Calm Calm - N/A   Clear
5:53 AM 3.9 °F - -0.9 °F 80% 30.23 in 10.0 mi Calm Calm - N/A   Mostly Cloudy
6:53 AM 10.0 °F 3.6 °F 3.0 °F 73% 30.22 in 10.0 mi North 3.5 mph - N/A   Overcast
7:53 AM 10.0 °F - 3.9 °F 76% 30.24 in 10.0 mi Calm Calm - N/A   Overcast
8:53 AM 10.0 °F - 5.0 °F 80% 30.26 in 10.0 mi Calm Calm - N/A   Overcast
9:53 AM 12.9 °F - 5.0 °F 71% 30.25 in 10.0 mi Calm Calm - N/A   Overcast
10:53 AM 15.1 °F - 7.0 °F 70% 30.24 in 10.0 mi Calm Calm - N/A   Overcast
11:53 AM 16.0 °F 6.3 °F 7.0 °F 68% 30.22 in 10.0 mi North 6.9 mph - N/A   Overcast
12:53 PM 17.1 °F 10.0 °F 9.0 °F 71% 30.19 in 10.0 mi NNE 4.6 mph - N/A   Overcast
1:53 PM 18.0 °F 11.1 °F 10.0 °F 71% 30.17 in 10.0 mi ENE 4.6 mph - N/A   Overcast
2:53 PM 15.1 °F 4.2 °F 10.0 °F 80% 30.16 in 10.0 mi ESE 8.1 mph - N/A   Overcast
3:53 PM 15.1 °F 6.4 °F 10.9 °F 84% 30.17 in 10.0 mi East 5.8 mph - N/A   Overcast
4:22 PM 15.8 °F 5.1 °F 10.4 °F 79% 29.94 in 10.0 mi ENE 8.1 mph - N/A   Overcast
4:46 PM 14.0 °F 3.9 °F 10.4 °F 86% 29.94 in 9.0 mi NE 6.9 mph - N/A   Overcast
4:53 PM 14.0 °F 3.9 °F 10.9 °F 88% 30.17 in 9.0 mi ENE 6.9 mph - N/A   Overcast
5:17 PM 14.0 °F 2.9 °F 10.4 °F 86% 29.94 in 9.0 mi ENE 8.1 mph - N/A   Overcast
5:24 PM 14.0 °F 2.0 °F 10.4 °F 86% 29.94 in 9.0 mi NE 9.2 mph - N/A   Overcast
5:53 PM 14.0 °F 3.9 °F 10.9 °F 88% 30.19 in 10.0 mi NE 6.9 mph - N/A   Overcast
6:13 PM 12.2 °F 1.7 °F 10.4 °F 92% 29.94 in 9.0 mi NE 6.9 mph - N/A   Overcast
6:53 PM 12.9 °F 3.8 °F 10.9 °F 92% 30.17 in 9.0 mi NE 5.8 mph - N/A   Overcast
7:35 PM 12.2 °F 2.9 °F 10.4 °F 92% 29.93 in 10.0 mi NE 5.8 mph - N/A   Overcast
7:53 PM 12.9 °F 2.6 °F 10.9 °F 92% 30.16 in 9.0 mi NE 6.9 mph - N/A   Overcast
8:53 PM 12.0 °F 0.5 °F 10.9 °F 95% 30.16 in 6.0 mi ENE 8.1 mph - 0.00 in Snow Light Snow
9:15 PM 12.2 °F 0.7 °F 10.4 °F 92% 29.93 in 8.0 mi ENE 8.1 mph - 0.00 in   Overcast
9:53 PM 10.9 °F -1.8 °F 9.0 °F 92% 30.17 in 8.0 mi ENE 9.2 mph - 0.00 in   Overcast
10:53 PM 10.9 °F 0.2 °F 9.0 °F 92% 30.17 in 4.0 mi ENE 6.9 mph - 0.00 in Snow Light Snow
11:19 PM 10.4 °F -0.4 °F 8.6 °F 92% 29.95 in 2.5 mi NE 6.9 mph - 0.00 in Snow Light Snow
11:40 PM 10.4 °F -0.4 °F 8.6 °F 92% 29.95 in 1.8 mi NE 6.9 mph - 0.00 in Snow Light Snow
11:53 PM 10.0 °F -3.7 °F 8.1 °F 92% 30.18 in 1.5 mi ENE 10.4 mph - 0.01 in Snow Light Snow